La Paz, Mexico

9:41 AM MST on February 06, 2016 (GMT -0700)
Gen Manuel Marquez De Leon

Weather History for MMLP - November, 2013

Change the Weather History Date:

Saturday, November 23, 2013

  Actual Average Record
Temperature  
Mean Temperature 74 °F -  
Max Temperature 87 °F 78 °F 89 °F (2006)
Min Temperature 61 °F 55 °F 50 °F (2004)
Cooling Degree Days 9    
Growing Degree Days 24 (Base 50)    
Moisture  
Dew Point 56 °F    
Average Humidity 51    
Maximum Humidity 82    
Minimum Humidity 25    
Precipitation  
Precipitation 0.00 in - - ()
Sea Level Pressure  
Sea Level Pressure 30.01 in    
Wind  
Wind Speed 4 mph ()    
Max Wind Speed 12 mph    
Max Gust Speed -    
Visibility 10.2 miles    
Events      
Averages and records for this station are not official NWS values.
T = Trace of Precipitation, MM = Missing Value Source: Averaged Metar Reports

Daily Weather History Graph

Daily Weather History Graph

Search for Another Location

Airport or City:

Trip Planner

Search our weather history database for the weather conditions in past years. The results will help you decide how hot, cold, wet, or windy it might be!

Date:

Astronomy

Nov. 23, 2013 Rise Set
Actual Time 6:42 AM MST 5:33 PM MST
Civil Twilight 6:18 AM MST 5:57 PM MST
Nautical Twilight 5:50 AM MST 6:25 PM MST
Astronomical Twilight 5:22 AM MST 6:52 PM MST
Moon 10:50 PM MST (11/23) 11:13 AM MST (11/23)
Length of Visible Light 11h 39m
Length of Day
10h 51m
Waning Gibbous, 69% of the Moon is Illuminated
Nov 23
Waning Gibbous
Nov 25
Last Quarter
Dec 2
New
Dec 9
First Quarter
Dec 17
Full

Hourly Weather History & Observations

Time (MST) Temp. Heat Index Dew Point Humidity Pressure Visibility Wind Dir Wind Speed Gust Speed Precip Events Conditions
1:50 AM 69 °F - 57 °F 58% 29.96 in 2 mi South 2.2 mph - -   Mostly Cloudy
4:50 AM 65 °F - 57 °F 69% 29.97 in 2 mi South 2.2 mph - -  
5:40 AM 60.8 °F - 55.4 °F 82% 29.99 in 10.0 mi Calm Calm - N/A   Partly Cloudy
7:42 AM 62.6 °F - 55.4 °F 77% 30.16 in 10.0 mi Calm Calm - N/A   Scattered Clouds
7:50 AM 66 °F - 59 °F 73% 30.01 in 12 mi Calm Calm - -   Partly Cloudy
8:46 AM 71.6 °F - 59.0 °F 64% 30.03 in 10.0 mi Calm Calm - N/A   Partly Cloudy
9:44 AM 77.0 °F - 57.2 °F 50% 30.04 in 10.0 mi South 5.8 mph - N/A   Partly Cloudy
10:40 AM 80 °F - 59 °F 38% 30.04 in 19 mi NW 4.5 mph - -   Scattered Clouds
10:44 AM 78.8 °F - 53.6 °F 42% 30.17 in 10.0 mi SSW 5.8 mph - N/A   Partly Cloudy
11:40 AM 80.6 °F - 51.8 °F 37% 30.00 in 10.0 mi SW 5.8 mph - N/A   Partly Cloudy
12:40 PM 82.4 °F - 51.8 °F 35% 29.96 in 10.0 mi WNW 5.8 mph - N/A   Partly Cloudy
1:40 PM 87 °F - 56 °F 25% 29.98 in 19 mi South 6.7 mph - -   Scattered Clouds
1:40 PM 84.2 °F - 51.8 °F 33% 30.09 in 10.0 mi West 8.1 mph - N/A   Partly Cloudy
2:00 PM 87 °F - 56 °F 25% 29.98 in 19 mi South 6.7 mph - -   Scattered Clouds
2:43 PM 82.4 °F - 51.8 °F 35% 29.93 in 10.0 mi WSW 11.5 mph - N/A   Mostly Cloudy
3:47 PM 82.4 °F - 51.8 °F 35% 29.93 in 10.0 mi SW 9.2 mph - N/A   Mostly Cloudy
4:50 PM 83 °F - 58 °F 33% 29.93 in 19 mi WSW 6.7 mph - -   Scattered Clouds
4:51 PM 80.6 °F 80.3 °F 53.6 °F 39% 30.04 in 10.0 mi SSW 11.5 mph - N/A   Mostly Cloudy
5:47 PM 77.0 °F - 55.4 °F 47% 29.96 in 10.0 mi WSW 9.2 mph - N/A   Mostly Cloudy
6:43 PM 75.2 °F - 59.0 °F 57% 29.97 in 10.0 mi Calm Calm - N/A   Scattered Clouds
7:49 PM 73.4 °F - 59.0 °F 61% 30.09 in 10.0 mi SW 5.8 mph - N/A   Partly Cloudy
7:50 PM 76 °F - 62 °F 53% 29.97 in 2 mi SSW 4.5 mph - -   Mostly Cloudy
8:40 PM 73.4 °F - 59.0 °F 61% 30.00 in 10.0 mi SW 6.9 mph - N/A   Partly Cloudy
10:01 PM 69.8 °F - 57.2 °F 64% 30.01 in 10.0 mi SSW 5.8 mph - N/A   Partly Cloudy
10:45 PM 72 °F - 61 °F 59% 29.99 in 2 mi South 2.2 mph - -  
10:51 PM 68.0 °F - 57.2 °F 68% 30.12 in 10.0 mi SSE 5.8 mph - N/A   Partly Cloudy